FW1957 Weather Reports


time (UTC)temp
C
wind
direction
speed
KPH
gust
KPH
rain 1hr
cm
rain 24hr
cm
rain mn
cm
humidity
%
barometer
mb
20260507053207 16 180 1.6 8.0 0.00 0.00 0.00 59 1009.2
20260507052716 16 198 3.2 8.0 0.00 0.00 0.00 59 1009.2
20260507052216 16 204 3.2 8.0 0.00 0.00 0.00 59 1009.1
20260507051711 16 203 1.6 6.4 0.00 0.00 0.00 57 1009.1
20260507051207 16 184 3.2 6.4 0.00 0.00 0.00 58 1009.1
20260507050216 16 215 1.6 6.4 0.00 0.00 0.00 60 1008.9
20260507045719 16 155 1.6 8.0 0.00 0.00 0.00 60 1008.9
20260507045219 16 193 1.6 8.0 0.00 0.00 0.00 60 1008.8
20260507044715 16 155 4.8 8.0 0.00 0.00 0.00 59 1008.7
20260507042715 15 107 1.6 14.5 0.00 0.00 0.00 58 1008.4
20260507042216 15 229 3.2 14.5 0.00 0.00 0.00 58 1008.3
20260507041719 15 344 3.2 14.5 0.00 0.00 0.00 57 1008.2
20260507041206 15 248 4.8 12.9 0.00 0.00 0.00 58 1008.0
20260507040709 15 276 4.8 12.9 0.00 0.00 0.00 58 1008.0
20260507035713 15 258 1.6 8.0 0.00 0.00 0.00 59 1007.8
20260507035209 15 295 3.2 8.0 0.00 0.00 0.00 60 1007.7
20260507034710 15 262 3.2 9.7 0.00 0.00 0.00 60 1007.8
20260507032706 15 257 6.4 16.1 0.00 0.00 0.00 60 1007.8
20260507032210 15 278 8.0 16.1 0.00 0.00 0.00 60 1007.8
20260507031714 15 272 8.0 16.1 0.00 0.00 0.00 60 1007.8
20260507031214 15 304 6.4 16.1 0.00 0.00 0.00 61 1007.8
20260507030214 15 297 6.4 16.1 0.00 0.00 0.00 62 1007.6
20260507025715 15 300 6.4 16.1 0.00 0.00 0.00 62 1007.5
20260507025212 15 267 8.0 17.7 0.00 0.00 0.00 63 1007.4
20260507023713 15 325 8.0 17.7 0.00 0.00 0.00 63 1007.5
20260507023219 15 303 8.0 19.3 0.00 0.00 0.00 63 1007.5
20260507022713 15 331 8.0 19.3 0.00 0.00 0.00 63 1007.6
20260507021716 15 339 8.0 14.5 0.00 0.00 0.00 63 1007.5
20260507021217 15 334 8.0 14.5 0.00 0.00 0.00 63 1007.4
20260507020705 15 327 6.4 14.5 0.00 0.00 0.00 63 1007.5
20260507020218 15 338 6.4 19.3 0.00 0.00 0.00 63 1007.5
20260507015711 15 347 8.0 19.3 0.00 0.00 0.00 63 1007.5
20260507015217 15 344 9.7 19.3 0.00 0.00 0.00 63 1007.4
20260507014710 15 294 11.3 19.3 0.00 0.00 0.00 63 1007.4
20260507014217 15 315 9.7 19.3 0.00 0.00 0.00 63 1007.4
20260507013709 15 345 9.7 19.3 0.00 0.00 0.00 63 1007.3
20260507013211 15 295 6.4 19.3 0.00 0.00 0.00 63 1007.3
20260507012706 15 355 8.0 24.1 0.00 0.00 0.00 63 1007.2
20260507012209 15 311 11.3 24.1 0.00 0.00 0.00 63 1007.3
20260507011210 15 315 11.3 22.5 0.00 0.00 0.00 63 1007.3
20260507010218 16 341 12.9 24.1 0.00 0.00 0.00 64 1007.1
20260507005706 16 320 12.9 24.1 0.00 0.00 0.00 64 1007.0
20260507005212 16 343 12.9 22.5 0.00 0.00 0.00 64 1007.0
20260507004709 16 340 12.9 24.1 0.00 0.00 0.00 64 1007.0
20260507004213 16 338 12.9 25.7 0.00 0.00 0.00 65 1006.9
20260507003712 16 313 12.9 25.7 0.00 0.00 0.00 65 1006.9
20260507003218 16 330 12.9 25.7 0.00 0.00 0.00 66 1006.9
20260507002715 16 323 12.9 22.5 0.00 0.00 0.00 67 1006.9
20260507002212 16 311 11.3 22.5 0.00 0.00 0.00 68 1006.9
20260507001708 16 303 8.0 16.1 0.00 0.00 0.00 68 1006.8
20260507001207 16 303 8.0 19.3 0.00 0.00 0.00 68 1006.8
20260507000709 16 11 11.3 19.3 0.00 0.00 0.00 68 1006.8
20260507000208 16 12 11.3 19.3 0.00 0.00 0.00 68 1006.8
20260506235719 16 13 9.7 19.3 0.00 0.00 0.00 68 1006.8
20260506235217 16 337 6.4 19.3 0.00 0.00 0.00 68 1006.8
20260506234715 16 323 3.2 12.9 0.00 0.00 0.00 66 1006.7
20260506234218 16 15 4.8 12.9 0.00 0.00 0.00 66 1006.7
20260506233709 16 0 4.8 12.9 0.00 0.00 0.00 66 1006.7
20260506233218 16 330 6.4 14.5 0.00 0.00 0.00 66 1006.6
20260506232708 16 30 8.0 14.5 0.00 0.00 0.00 65 1006.2
20260506232215 16 15 6.4 11.3 0.00 0.00 0.00 65 1006.1
20260506230718 16 55 6.4 11.3 0.00 0.00 0.00 63 1006.1
20260506230209 16 49 4.8 8.0 0.00 0.00 0.00 63 1006.0
20260506225709 16 10 3.2 8.0 0.00 0.00 0.00 62 1006.0
20260506225209 16 5 3.2 14.5 0.00 0.00 0.00 62 1005.9
20260506224708 16 355 4.8 14.5 0.00 0.00 0.00 62 1005.8
20260506224210 16 332 4.8 14.5 0.00 0.00 0.00 62 1005.7
20260506223210 16 205 3.2 6.4 0.00 0.00 0.00 63 1005.4
20260506222209 17 180 3.2 9.7 0.00 0.00 0.00 63 1005.2
20260506221719 17 183 3.2 14.5 0.00 0.00 0.00 63 1005.1
20260506221214 17 178 4.8 14.5 0.00 0.00 0.00 62 1005.1
20260506220710 17 212 8.0 16.1 0.00 0.00 0.00 62 1005.0
20260506220214 17 232 9.7 16.1 0.00 0.00 0.00 62 1004.9
20260506215709 17 225 9.7 16.1 0.00 0.00 0.00 63 1004.8
20260506215211 17 225 6.4 12.9 0.00 0.00 0.00 63 1004.7
20260506214718 17 204 4.8 12.9 0.00 0.00 0.00 63 1004.6
20260506214219 17 185 6.4 12.9 0.00 0.00 0.00 63 1004.6
20260506213721 17 186 6.4 11.3 0.00 0.00 0.00 63 1004.5
20260506213218 17 192 6.4 17.7 0.00 0.00 0.00 63 1004.4
20260506212708 17 204 8.0 17.7 0.00 0.00 0.00 63 1004.2
20260506212205 17 160 8.0 17.7 0.00 0.00 0.00 63 1004.3
20260506211711 17 225 8.0 16.1 0.00 0.00 0.00 62 1004.3
20260506211216 17 197 8.0 19.3 0.00 0.00 0.00 63 1004.3
20260506210711 17 165 9.7 19.3 0.00 0.00 0.00 63 1004.2
20260506210216 17 194 9.7 19.3 0.00 0.00 0.00 63 1004.1
20260506205712 17 205 9.7 20.9 0.00 0.00 0.00 63 1003.9
20260506205205 17 219 11.3 27.4 0.00 0.00 0.00 63 1004.0
20260506204713 17 140 11.3 27.4 0.00 0.00 0.00 63 1003.9
20260506204213 17 136 12.9 27.4 0.00 0.00 0.00 63 1003.7
20260506203216 17 140 12.9 24.1 0.00 0.00 0.00 63 1003.6
20260506202718 17 184 12.9 30.6 0.00 0.00 0.00 63 1003.7
20260506202221 17 194 12.9 30.6 0.00 0.00 0.00 63 1003.6
20260506201719 17 211 12.9 30.6 0.00 0.00 0.00 62 1003.6
20260506201216 18 190 12.9 32.2 0.00 0.00 0.00 62 1003.6
20260506200718 18 173 12.9 37.0 0.00 0.00 0.00 62 1003.5
20260506200215 18 180 14.5 37.0 0.00 0.00 0.00 62 1003.5
20260506195216 18 207 16.1 43.5 0.00 0.00 0.00 62 1003.2
20260506194710 18 223 16.1 25.7 0.00 0.00 0.00 62 1003.0
20260506194214 18 163 16.1 24.1 0.00 0.00 0.00 62 1003.1
20260506193705 18 199 12.9 30.6 0.00 0.00 0.00 62 1003.3
20260506192714 18 165 14.5 30.6 0.00 0.00 0.00 61 1003.4
20260506192207 18 165 14.5 25.7 0.00 0.00 0.00 61 1003.2
20260506191714 18 205 11.3 25.7 0.00 0.00 0.00 61 1003.3
20260506191208 18 183 11.3 30.6 0.00 0.00 0.00 60 1003.4
20260506190717 18 183 12.9 30.6 0.00 0.00 0.00 60 1003.3
20260506185705 18 194 16.1 40.2 0.00 0.00 0.00 59 1003.1
20260506184213 19 190 14.5 29.0 0.00 0.00 0.00 59 1002.7
20260506182706 19 205 17.7 33.8 0.00 0.00 0.00 58 1002.5
20260506182206 19 204 16.1 33.8 0.00 0.00 0.00 58 1002.5
20260506181711 19 185 14.5 29.0 0.00 0.00 0.00 58 1002.7
20260506181208 19 202 14.5 29.0 0.00 0.00 0.00 58 1002.7
20260506180719 20 178 16.1 29.0 0.00 0.00 0.00 58 1002.7
20260506175718 20 201 16.1 29.0 0.00 0.00 0.00 57 1003.0
20260506175216 20 177 16.1 27.4 0.00 0.00 0.00 56 1003.1
20260506174708 20 189 12.9 29.0 0.00 0.00 0.00 56 1003.2
20260506174210 20 192 12.9 29.0 0.00 0.00 0.00 56 1003.4
20260506173719 20 154 11.3 29.0 0.00 0.00 0.00 55 1003.3
20260506173212 20 205 11.3 22.5 0.00 0.00 0.00 55 1003.4
20260506172216 20 206 12.9 32.2 0.00 0.00 0.00 55 1003.3
20260506171714 21 162 14.5 32.2 0.00 0.00 0.00 54 1003.1
20260506170706 21 177 16.1 37.0 0.00 0.00 0.00 53 1003.2
20260506170235 21 173 16.1 37.0 0.00 0.00 0.00 53 1003.2
20260506165706 21 208 16.1 40.2 0.00 0.00 0.00 52 1003.2
20260506164715 21 207 16.1 40.2 0.00 0.00 0.00 51 1003.1
20260506164207 21 174 16.1 27.4 0.00 0.00 0.00 50 1003.2
20260506163717 22 175 14.5 27.4 0.00 0.00 0.00 50 1003.2
20260506163216 22 196 14.5 37.0 0.00 0.00 0.00 50 1003.2
20260506162712 22 214 16.1 40.2 0.00 0.00 0.00 50 1003.1
20260506162232 22 182 20.9 41.8 0.00 0.00 0.00 49 1003.2
20260506160235 23 180 19.3 37.0 0.00 0.00 0.00 47 1003.2
20260506155707 23 232 17.7 37.0 0.00 0.00 0.00 47 1003.2
20260506155211 23 196 19.3 37.0 0.00 0.00 0.00 48 1003.3
20260506154209 23 180 16.1 30.6 0.00 0.00 0.00 48 1003.4
20260506153708 23 138 14.5 27.4 0.00 0.00 0.00 48 1003.5
20260506153214 23 188 14.5 41.8 0.00 0.00 0.00 48 1003.4
20260506152211 23 161 16.1 41.8 0.00 0.00 0.00 48 1003.4
20260506151714 23 161 19.3 38.6 0.00 0.00 0.00 48 1003.4
20260506151219 23 205 20.9 38.6 0.00 0.00 0.00 48 1003.5
20260506150714 23 168 19.3 41.8 0.00 0.00 0.00 48 1003.6
20260506145719 23 173 19.3 45.1 0.00 0.00 0.00 48 1003.6
20260506144710 23 199 20.9 48.3 0.00 0.00 0.00 48 1003.6
20260506144211 23 197 22.5 49.9 0.00 0.00 0.00 47 1003.6
20260506143210 24 196 29.0 49.9 0.00 0.00 0.00 46 1003.6
20260506142716 24 187 29.0 49.9 0.00 0.00 0.00 46 1003.6
20260506142209 24 186 24.1 43.5 0.00 0.00 0.00 45 1003.5
20260506141706 25 165 22.5 41.8 0.00 0.00 0.00 44 1003.5
20260506141207 24 194 20.9 41.8 0.00 0.00 0.00 44 1003.6
20260506140715 24 181 17.7 40.2 0.00 0.00 0.00 44 1003.5
20260506140217 24 215 17.7 40.2 0.00 0.00 0.00 41 1003.6
20260506135709 25 217 20.9 37.0 0.00 0.00 0.00 42 1003.5
20260506135219 25 195 20.9 37.0 0.00 0.00 0.00 42 1003.4
20260506133713 25 159 22.5 41.8 0.00 0.00 0.00 40 1003.4
20260506133220 26 177 20.9 45.1 0.00 0.00 0.00 40 1003.5
20260506132711 26 132 20.9 45.1 0.00 0.00 0.00 39 1003.5
20260506132210 26 197 19.3 45.1 0.00 0.00 0.00 40 1003.6
20260506131709 26 198 17.7 43.5 0.00 0.00 0.00 38 1003.7
20260506131214 26 198 19.3 45.1 0.00 0.00 0.00 39 1003.6
20260506130705 26 219 22.5 45.1 0.00 0.00 0.00 39 1003.7
20260506130217 26 200 20.9 40.2 0.00 0.00 0.00 39 1003.6
20260506125713 26 191 17.7 40.2 0.00 0.00 0.00 39 1003.7
20260506125210 26 188 22.5 43.5 0.00 0.00 0.00 39 1003.7
20260506123712 27 178 20.9 41.8 0.00 0.00 0.00 37 1003.8
20260506123217 26 184 22.5 45.1 0.00 0.00 0.00 37 1003.8
20260506122711 26 163 22.5 45.1 0.00 0.00 0.00 38 1003.8
20260506122215 25 221 24.1 45.1 0.00 0.00 0.00 39 1003.8
20260506121216 25 189 24.1 45.1 0.00 0.00 0.00 39 1004.0
20260506120708 25 168 24.1 45.1 0.00 0.00 0.00 40 1004.0
20260506120219 25 194 24.1 45.1 0.00 0.00 0.00 39 1003.9
20260506115707 25 169 24.1 43.5 0.00 0.00 0.00 38 1004.0
20260506115213 25 173 27.4 46.7 0.00 0.00 0.00 37 1004.0
20260506114706 26 159 27.4 46.7 0.00 0.00 0.00 37 1004.2
20260506114219 26 163 27.4 46.7 0.00 0.00 0.00 38 1004.1
20260506113712 26 157 27.4 46.7 0.00 0.00 0.00 38 1004.1
20260506113211 25 165 25.7 41.8 0.00 0.00 0.00 38 1004.3
20260506112708 25 173 22.5 40.2 0.00 0.00 0.00 38 1004.5
20260506112234 26 180 20.9 46.7 0.00 0.00 0.00 37 1004.5
20260506110709 25 192 24.1 40.2 0.00 0.00 0.00 37 1004.5
20260506110209 25 161 22.5 38.6 0.00 0.00 0.00 37 1004.7
20260506105713 25 169 19.3 43.5 0.00 0.00 0.00 37 1004.6
20260506105208 25 157 20.9 43.5 0.00 0.00 0.00 37 1004.7
20260506104707 25 178 22.5 43.5 0.00 0.00 0.00 38 1005.0
20260506104213 25 169 19.3 32.2 0.00 0.00 0.00 38 1004.9
20260506103705 25 168 17.7 41.8 0.00 0.00 0.00 38 1005.0
20260506103217 24 161 19.3 41.8 0.00 0.00 0.00 37 1005.2
20260506102712 24 207 20.9 41.8 0.00 0.00 0.00 38 1005.4
20260506102208 23 159 19.3 33.8 0.00 0.00 0.00 44 1005.3
20260506101711 23 159 19.3 33.8 0.00 0.00 0.00 45 1005.4
20260506101210 23 157 20.9 33.8 0.00 0.00 0.00 45 1005.6
20260506100714 23 130 19.3 41.8 0.00 0.00 0.00 45 1005.5
20260506100228 23 182 19.3 41.8 0.00 0.00 0.00 45 1005.7
20260506095715 23 149 20.9 49.9 0.00 0.00 0.00 46 1005.9
20260506095213 23 171 22.5 49.9 0.00 0.00 0.00 46 1005.8
20260506094712 23 99 22.5 49.9 0.00 0.00 0.00 46 1005.9
20260506094206 23 107 20.9 38.6 0.00 0.00 0.00 46 1005.9
20260506093710 23 180 22.5 38.6 0.00 0.00 0.00 46 1006.1
20260506093206 23 163 22.5 38.6 0.00 0.00 0.00 46 1006.2
20260506092215 23 161 22.5 33.8 0.00 0.00 0.00 46 1006.4
20260506091706 23 148 20.9 32.2 0.00 0.00 0.00 46 1006.5
20260506091212 23 116 19.3 35.4 0.00 0.00 0.00 48 1006.5
20260506090705 23 123 17.7 35.4 0.00 0.00 0.00 49 1006.5
20260506090214 23 109 17.7 27.4 0.00 0.00 0.00 51 1006.5
20260506085706 22 146 19.3 27.4 0.00 0.00 0.00 50 1006.5
20260506085211 22 122 17.7 27.4 0.00 0.00 0.00 50 1006.6
20260506084711 23 146 16.1 27.4 0.00 0.00 0.00 49 1006.7
20260506083716 23 154 14.5 24.1 0.00 0.00 0.00 50 1006.6
20260506083206 22 116 12.9 22.5 0.00 0.00 0.00 50 1006.6
20260506082706 22 136 12.9 24.1 0.00 0.00 0.00 50 1006.6
20260506082217 22 157 12.9 24.1 0.00 0.00 0.00 49 1006.6
20260506081212 22 184 11.3 19.3 0.00 0.00 0.00 48 1006.4
20260506080708 22 147 9.7 19.3 0.00 0.00 0.00 48 1006.4
20260506073219 21 225 8.0 16.1 0.00 0.00 0.00 53 1006.7
20260506072709 20 207 6.4 12.9 0.00 0.00 0.00 53 1006.7
20260506072218 20 178 4.8 12.9 0.00 0.00 0.00 53 1006.8
20260506071711 20 186 6.4 11.3 0.00 0.00 0.00 54 1006.8
20260506071207 20 219 4.8 11.3 0.00 0.00 0.00 54 1006.8
20260506070719 20 173 4.8 9.7 0.00 0.00 0.00 56 1006.9
20260506070205 19 248 4.8 9.7 0.00 0.00 0.00 56 1006.9
20260506062217 17 198 4.8 12.9 0.00 0.00 0.00 60 1007.1
20260506061719 17 215 4.8 12.9 0.00 0.00 0.00 61 1007.1
20260506061208 17 224 6.4 12.9 0.00 0.00 0.00 61 1007.1
20260506060718 17 261 8.0 12.9 0.00 0.00 0.00 62 1007.2
20260506060209 16 234 8.0 12.9 0.00 0.00 0.00 62 1007.2